,,PA_Meas_PMT16A,,PR_Meas_QMR101_102,,RH_Meas_QMH101,,SR_Meas_QMS101,,TA_Meas_QMH101,,GenWind,,GenWind,
time,status,PA,status,PR,status,RH,status,SR,status,TA,status,DirAvg,status,SpdAvg,
2011-07-25, 00:00:05,VALID,917.459,VALID,0,VALID,94.0272,VALID,0,VALID,20.9869,VALID,7,VALID,0.554688,
2011-07-25, 00:01:05,VALID,917.434,VALID,0,VALID,94.0882,VALID,0,VALID,20.9885,VALID,7,VALID,0.125,
2011-07-25, 00:02:05,VALID,917.414,VALID,0,VALID,94.2178,VALID,0,VALID,21.008,VALID,7,VALID,0.00195313,
2011-07-25, 00:03:05,VALID,917.383,VALID,0,VALID,94.2635,VALID,0.107441,VALID,20.9658,VALID,7,VALID,0.204297,
2011-07-25, 00:04:05,VALID,917.38,VALID,0,VALID,94.2635,VALID,0,VALID,21.0064,VALID,7,VALID,0.306641,
2011-07-25, 00:05:05,VALID,917.357,VALID,0,VALID,94.1644,VALID,0,VALID,21.047,VALID,7,VALID,0.666406,
2011-07-25, 00:06:05,VALID,917.349,VALID,0,VALID,94.0882,VALID,0,VALID,21.0259,VALID,7,VALID,0.932031,
2011-07-25, 00:07:05,VALID,917.326,VALID,0,VALID,94.0958,VALID,0,VALID,21.0064,VALID,7,VALID,1.04258,
2011-07-25, 00:08:05,VALID,917.288,VALID,0,VALID,94.0501,VALID,0,VALID,21.0259,VALID,7,VALID,1.2375,
2011-07-25, 00:09:05,VALID,917.261,VALID,0,VALID,94.012,VALID,0,VALID,20.9869,VALID,7,VALID,1.07969,
2011-07-25, 00:10:05,VALID,917.232,VALID,0,VALID,93.9815,VALID,0,VALID,20.969,VALID,7,VALID,0.847656,
2011-07-25, 00:11:05,VALID,917.218,VALID,0,VALID,94.1339,VALID,0,VALID,20.9495,VALID,7,VALID,0.998828,
2011-07-25, 00:12:05,VALID,917.226,VALID,0,VALID,94.2102,VALID,0,VALID,20.93,VALID,7,VALID,0.996094,
2011-07-25, 00:13:05,VALID,917.225,VALID,0,VALID,94.233,VALID,0,VALID,20.8699,VALID,7,VALID,1.20352,
2011-07-25, 00:14:05,VALID,917.171,VALID,0,VALID,94.4084,VALID,0,VALID,20.8504,VALID,7,VALID,1.03203,
2011-07-25, 00:15:05,VALID,917.169,VALID,0,VALID,94.4008,VALID,0,VALID,20.8714,VALID,7,VALID,0.903125,
2011-07-25, 00:16:05,VALID,917.13,VALID,0,VALID,94.2407,VALID,0,VALID,20.8324,VALID,7,VALID,1.26406,
2011-07-25, 00:17:05,VALID,917.16,VALID,0,VALID,94.3169,VALID,0,VALID,20.7934,VALID,7,VALID,1.14609,
2011-07-25, 00:18:05,VALID,917.168,VALID,0,VALID,94.4313,VALID,0,VALID,20.7333,VALID,7,VALID,1.10586,
2011-07-25, 00:19:05,VALID,917.171,VALID,0,VALID,94.6142,VALID,0,VALID,20.7154,VALID,7,VALID,1.11719,
2011-07-25, 00:20:05,VALID,917.175,VALID,0,VALID,94.7591,VALID,0,VALID,20.6132,VALID,3,VALID,1.13359,
2011-07-25, 00:21:05,VALID,917.203,VALID,0,VALID,94.9115,VALID,0,VALID,20.6764,VALID,3,VALID,1.15273,
2011-07-25, 00:22:05,VALID,917.199,VALID,0,VALID,95.064,VALID,0,VALID,20.6179,VALID,3,VALID,1.16055,
2011-07-25, 00:23:05,VALID,917.3,VALID,0,VALID,95.2241,VALID,0,VALID,20.6179,VALID,3,VALID,0.953125,
2011-07-25, 00:24:05,VALID,917.294,VALID,0,VALID,95.3384,VALID,0,VALID,20.6179,VALID,3,VALID,0.615625,
2011-07-25, 00:25:05,VALID,917.345,VALID,0,VALID,95.4375,VALID,0,VALID,20.5984,VALID,3,VALID,0.797656,
2011-07-25, 00:26:05,VALID,917.394,VALID,0,VALID,95.4985,VALID,0,VALID,20.6179,VALID,3,VALID,0.549609,
2011-07-25, 00:27:05,VALID,917.421,VALID,0,VALID,95.5519,VALID,0,VALID,20.6179,VALID,3,VALID,0.873438,
2011-07-25, 00:28:05,VALID,917.407,VALID,0,VALID,95.59,VALID,0,VALID,20.5968,VALID,3,VALID,0.865234,
2011-07-25, 00:29:05,VALID,917.385,VALID,0,VALID,95.6586,VALID,0,VALID,20.6374,VALID,3,VALID,1.24375,
2011-07-25, 00:30:05,VALID,917.322,VALID,0,VALID,95.5824,VALID,0,VALID,20.6179,VALID,3,VALID,1.38906,
2011-07-25, 00:31:05,VALID,917.286,VALID,0,VALID,95.5595,VALID,0.107441,VALID,20.6585,VALID,3,VALID,1.48672,
2011-07-25, 00:32:05,VALID,917.284,VALID,0,VALID,95.529,VALID,0,VALID,20.6358,VALID,3,VALID,1.27539,
2011-07-25, 00:33:05,VALID,917.332,VALID,0,VALID,95.4757,VALID,0,VALID,20.5968,VALID,3,VALID,1.06094,
2011-07-25, 00:34:05,VALID,917.326,VALID,0,VALID,95.4223,VALID,0,VALID,20.6179,VALID,3,VALID,0.667969,
2011-07-25, 00:35:05,VALID,917.289,VALID,0,VALID,95.3994,VALID,0,VALID,20.6569,VALID,3,VALID,0.498437,
2011-07-25, 00:36:05,VALID,917.241,VALID,0,VALID,95.3079,VALID,0,VALID,20.6553,VALID,248,VALID,1.19766,
2011-07-25, 00:37:05,VALID,917.221,VALID,0,VALID,95.1783,VALID,0,VALID,20.6959,VALID,248,VALID,0.761719,
2011-07-25, 00:38:05,VALID,917.214,VALID,0,VALID,95.064,VALID,0,VALID,20.7349,VALID,248,VALID,0.554688,
2011-07-25, 00:39:05,VALID,917.182,VALID,0,VALID,94.881,VALID,0,VALID,20.7544,VALID,248,VALID,0.417188,
2011-07-25, 00:40:05,VALID,917.208,VALID,0,VALID,94.7286,VALID,0.107441,VALID,20.7739,VALID,248,VALID,0.504297,
2011-07-25, 00:41:05,VALID,917.2,VALID,0,VALID,94.5609,VALID,0,VALID,20.7739,VALID,248,VALID,0.560156,
2011-07-25, 00:42:05,VALID,917.211,VALID,0,VALID,94.3779,VALID,0,VALID,20.7934,VALID,248,VALID,0.764844,
2011-07-25, 00:43:05,VALID,917.212,VALID,0,VALID,94.1263,VALID,0,VALID,20.7934,VALID,248,VALID,0.505859,
2011-07-25, 00:44:05,VALID,917.243,VALID,0,VALID,94.0043,VALID,0,VALID,20.8129,VALID,248,VALID,0.0269531,
2011-07-25, 00:45:05,VALID,917.317,VALID,0,VALID,93.707,VALID,0,VALID,20.8324,VALID,248,VALID,0.666797,
2011-07-25, 00:46:05,VALID,917.344,VALID,0,VALID,93.5851,VALID,0,VALID,20.7918,VALID,248,VALID,0.483984,
2011-07-25, 00:47:05,VALID,917.371,VALID,0,VALID,93.4631,VALID,0,VALID,20.7934,VALID,248,VALID,0.541016,
2011-07-25, 00:48:05,VALID,917.392,VALID,0,VALID,93.4707,VALID,0,VALID,20.7349,VALID,248,VALID,0.539063,
2011-07-25, 00:49:05,VALID,917.386,VALID,0,VALID,93.6308,VALID,0,VALID,20.7154,VALID,248,VALID,0.325,
2011-07-25, 00:50:05,VALID,917.385,VALID,0,VALID,93.707,VALID,0,VALID,20.6764,VALID,248,VALID,0.171094,
2011-07-25, 00:51:05,VALID,917.377,VALID,0,VALID,93.8138,VALID,0,VALID,20.6569,VALID,248,VALID,0.053125,
2011-07-25, 00:52:05,VALID,917.352,VALID,0,VALID,93.8671,VALID,0,VALID,20.6179,VALID,248,VALID,0.127734,
2011-07-25, 00:53:05,VALID,917.324,VALID,0,VALID,93.9357,VALID,0,VALID,20.5594,VALID,248,VALID,0.0832031,
2011-07-25, 00:54:05,VALID,917.307,VALID,0,VALID,94.0501,VALID,0,VALID,20.5594,VALID,248,VALID,0,
2011-07-25, 00:55:05,VALID,917.33,VALID,0,VALID,94.1797,VALID,0,VALID,20.5399,VALID,248,VALID,0,
2011-07-25, 00:56:05,VALID,917.292,VALID,0,VALID,94.3245,VALID,0,VALID,20.5399,VALID,248,VALID,0.163281,
2011-07-25, 00:57:05,VALID,917.281,VALID,0,VALID,94.4541,VALID,0,VALID,20.5594,VALID,248,VALID,0.0257812,
2011-07-25, 00:58:05,VALID,917.25,VALID,0,VALID,94.6066,VALID,0,VALID,20.5594,VALID,248,VALID,0.159375,
2011-07-25, 00:59:05,VALID,917.214,VALID,0,VALID,94.6828,VALID,0,VALID,20.5594,VALID,248,VALID,0.258203,
2011-07-25, 01:00:05,VALID,917.152,VALID,0,VALID,94.5609,VALID,0,VALID,20.5594,VALID,248,VALID,0.944922,
2011-07-25, 01:01:05,VALID,917.185,VALID,0,VALID,94.6295,VALID,0,VALID,20.5399,VALID,248,VALID,0.91875,
2011-07-25, 01:02:05,VALID,917.126,VALID,0,VALID,94.66,VALID,0,VALID,20.5009,VALID,248,VALID,0.722266,
2011-07-25, 01:03:05,VALID,917.098,VALID,0,VALID,94.6752,VALID,0,VALID,20.4813,VALID,248,VALID,0.661719,
2011-07-25, 01:04:05,VALID,917.016,VALID,0,VALID,94.7743,VALID,0,VALID,20.4423,VALID,248,VALID,0.807813,
2011-07-25, 01:05:05,VALID,917.009,VALID,0,VALID,95.0259,VALID,0,VALID,20.4423,VALID,11,VALID,0.763672,
2011-07-25, 01:06:05,VALID,916.98,VALID,0,VALID,95.1479,VALID,0,VALID,20.4618,VALID,11,VALID,0.317578,
2011-07-25, 01:07:05,VALID,916.966,VALID,0,VALID,95.2088,VALID,0,VALID,20.4439,VALID,11,VALID,0.238281,
2011-07-25, 01:08:05,VALID,916.944,VALID,0,VALID,95.2775,VALID,0,VALID,20.4002,VALID,11,VALID,0.519531,
2011-07-25, 01:09:05,VALID,916.889,VALID,0,VALID,95.247,VALID,0,VALID,20.5672,VALID,11,VALID,1.24336,
2011-07-25, 01:10:05,VALID,916.902,VALID,0,VALID,95.3156,VALID,0,VALID,20.3807,VALID,11,VALID,1.42813,
2011-07-25, 01:11:05,VALID,916.909,VALID,0,VALID,95.3613,VALID,0,VALID,20.4634,VALID,2,VALID,1.05625,
2011-07-25, 01:12:05,VALID,916.941,VALID,0,VALID,95.3384,VALID,0,VALID,20.4439,VALID,5,VALID,0.889453,
2011-07-25, 01:13:05,VALID,916.954,VALID,0,VALID,95.3918,VALID,0,VALID,20.4634,VALID,5,VALID,1.21992,
2011-07-25, 01:14:05,VALID,916.948,VALID,0,VALID,95.4909,VALID,0,VALID,20.4002,VALID,5,VALID,1.025,
2011-07-25, 01:15:05,VALID,916.905,VALID,0,VALID,95.5595,VALID,0,VALID,20.4423,VALID,27,VALID,1.28125,
2011-07-25, 01:16:05,VALID,916.909,VALID,0,VALID,95.5976,VALID,0,VALID,20.3987,VALID,27,VALID,0.800781,
2011-07-25, 01:17:05,VALID,916.955,VALID,0,VALID,95.6205,VALID,0,VALID,20.4408,VALID,27,VALID,0.859766,
2011-07-25, 01:18:05,VALID,917.004,VALID,0,VALID,95.6434,VALID,0,VALID,20.4829,VALID,27,VALID,0.892187,
2011-07-25, 01:19:05,VALID,917.044,VALID,0,VALID,95.6662,VALID,0,VALID,20.5235,VALID,23,VALID,1.37461,
2011-07-25, 01:20:05,VALID,917.009,VALID,0,VALID,95.6739,VALID,0,VALID,20.4829,VALID,343,VALID,1.13633,
2011-07-25, 01:21:05,VALID,916.99,VALID,0,VALID,95.6739,VALID,0,VALID,20.4618,VALID,12,VALID,1.26133,
2011-07-25, 01:22:05,VALID,916.935,VALID,0,VALID,95.6967,VALID,0,VALID,20.4228,VALID,12,VALID,0.748047,
2011-07-25, 01:23:05,VALID,916.933,VALID,0,VALID,95.7349,VALID,0,VALID,20.4439,VALID,12,VALID,0.684766,
2011-07-25, 01:24:05,VALID,916.936,VALID,0,VALID,95.8035,VALID,0,VALID,20.4439,VALID,12,VALID,0.167969,
2011-07-25, 01:25:05,VALID,916.932,VALID,0,VALID,95.8263,VALID,0,VALID,20.4228,VALID,12,VALID,0.0515625,
2011-07-25, 01:26:05,VALID,916.944,VALID,0,VALID,95.8568,VALID,0.107441,VALID,20.4423,VALID,12,VALID,0,
2011-07-25, 01:27:05,VALID,916.94,VALID,0,VALID,95.895,VALID,0,VALID,20.4618,VALID,12,VALID,0.230078,
2011-07-25, 01:28:05,VALID,916.922,VALID,0,VALID,95.895,VALID,0,VALID,20.4618,VALID,12,VALID,0.36875,
2011-07-25, 01:29:05,VALID,916.917,VALID,0,VALID,95.8721,VALID,0,VALID,20.4618,VALID,12,VALID,0.528125,
2011-07-25, 01:30:05,VALID,916.9,VALID,0,VALID,95.834,VALID,0,VALID,20.4423,VALID,12,VALID,0.685547,
2011-07-25, 01:31:05,VALID,916.888,VALID,0,VALID,95.8111,VALID,0,VALID,20.4423,VALID,12,VALID,0.680078,
2011-07-25, 01:32:05,VALID,916.887,VALID,0,VALID,95.8263,VALID,0,VALID,20.4618,VALID,12,VALID,0.544141,
2011-07-25, 01:33:05,VALID,916.878,VALID,0,VALID,95.7958,VALID,0,VALID,20.4618,VALID,12,VALID,0,
2011-07-25, 01:34:05,VALID,916.88,VALID,0,VALID,95.7806,VALID,0,VALID,20.4634,VALID,12,VALID,0,
2011-07-25, 01:35:05,VALID,916.86,VALID,0,VALID,95.7501,VALID,0,VALID,20.4213,VALID,12,VALID,0,
2011-07-25, 01:36:05,VALID,916.87,VALID,0,VALID,95.7349,VALID,0,VALID,20.4423,VALID,12,VALID,0.0824219,
2011-07-25, 01:37:05,VALID,916.897,VALID,0,VALID,95.773,VALID,0,VALID,20.4423,VALID,12,VALID,0.00585938,
2011-07-25, 01:38:05,VALID,916.885,VALID,0,VALID,95.7806,VALID,0.107441,VALID,20.4423,VALID,12,VALID,0,
2011-07-25, 01:39:05,VALID,916.881,VALID,0,VALID,95.8111,VALID,0,VALID,20.4634,VALID,12,VALID,0,
2011-07-25, 01:40:05,VALID,916.839,VALID,0,VALID,95.834,VALID,0,VALID,20.4423,VALID,12,VALID,0,
2011-07-25, 01:41:05,VALID,916.846,VALID,0,VALID,95.8263,VALID,0,VALID,20.4423,VALID,12,VALID,0,
2011-07-25, 01:42:05,VALID,916.807,VALID,0,VALID,95.8111,VALID,0,VALID,20.4228,VALID,12,VALID,0,
2011-07-25, 01:43:05,VALID,916.773,VALID,0,VALID,95.712,VALID,0,VALID,20.3838,VALID,12,VALID,0,
2011-07-25, 01:44:05,VALID,916.736,VALID,0,VALID,95.6967,VALID,0,VALID,20.3448,VALID,12,VALID,0,
2011-07-25, 01:45:05,VALID,916.703,VALID,0,VALID,95.6815,VALID,0,VALID,20.3448,VALID,12,VALID,0.457031,
2011-07-25, 01:46:05,VALID,916.71,VALID,0,VALID,95.7349,VALID,0.107441,VALID,20.3253,VALID,12,VALID,0.127734,
2011-07-25, 01:47:05,VALID,916.694,VALID,0,VALID,95.7882,VALID,0,VALID,20.3253,VALID,12,VALID,0.0238281,
2011-07-25, 01:48:05,VALID,916.653,VALID,0,VALID,95.8263,VALID,0,VALID,20.3253,VALID,12,VALID,0.0113281,
2011-07-25, 01:49:05,VALID,916.671,VALID,0,VALID,95.8645,VALID,0,VALID,20.3253,VALID,12,VALID,0.411719,
2011-07-25, 01:50:05,VALID,916.607,VALID,0,VALID,95.9178,VALID,0.107441,VALID,20.3043,VALID,12,VALID,0.490234,
2011-07-25, 01:51:05,VALID,916.551,VALID,0,VALID,95.8797,VALID,0,VALID,20.2863,VALID,11,VALID,0.739062,
2011-07-25, 01:52:05,VALID,916.534,VALID,0,VALID,95.8797,VALID,0,VALID,20.3074,VALID,12,VALID,0.521484,
2011-07-25, 01:53:05,VALID,916.489,VALID,0,VALID,95.9026,VALID,0,VALID,20.2863,VALID,12,VALID,0.34375,
2011-07-25, 01:54:05,VALID,916.466,VALID,0,VALID,95.8873,VALID,0,VALID,20.2458,VALID,12,VALID,0.306641,
2011-07-25, 01:55:05,VALID,916.464,VALID,0,VALID,95.8492,VALID,0,VALID,20.2263,VALID,11,VALID,0.929688,
2011-07-25, 01:56:05,VALID,916.454,VALID,0,VALID,95.895,VALID,0,VALID,20.2293,VALID,12,VALID,0.835547,
2011-07-25, 01:57:05,VALID,916.424,VALID,0,VALID,95.895,VALID,0,VALID,20.2278,VALID,12,VALID,1.34297,
2011-07-25, 01:58:05,VALID,916.382,VALID,0,VALID,95.9712,VALID,0,VALID,20.2098,VALID,52,VALID,1.30273,
2011-07-25, 01:59:05,VALID,916.381,VALID,0,VALID,95.9636,VALID,0,VALID,20.1888,VALID,96,VALID,1.24688,
2011-07-25, 02:00:05,VALID,916.339,VALID,0,VALID,96.0245,VALID,0,VALID,20.2114,VALID,96,VALID,1.2332,
2011-07-25, 02:01:05,VALID,916.292,VALID,0,VALID,96.0322,VALID,0,VALID,20.1513,VALID,96,VALID,0.715234,
2011-07-25, 02:02:05,VALID,916.298,VALID,0,VALID,96.0855,VALID,0,VALID,20.1303,VALID,96,VALID,0.507031,
2011-07-25, 02:03:05,VALID,916.264,VALID,0,VALID,96.116,VALID,0,VALID,20.1513,VALID,96,VALID,0.294922,
2011-07-25, 02:04:05,VALID,916.279,VALID,0,VALID,96.1389,VALID,0,VALID,20.1513,VALID,96,VALID,0.186719,
2011-07-25, 02:05:05,VALID,916.309,VALID,0,VALID,96.1694,VALID,0,VALID,20.1318,VALID,96,VALID,0.142578,
2011-07-25, 02:06:05,VALID,916.324,VALID,0,VALID,96.1923,VALID,0,VALID,20.1318,VALID,96,VALID,0.479297,
2011-07-25, 02:07:05,VALID,916.295,VALID,0,VALID,96.1846,VALID,0,VALID,20.0913,VALID,96,VALID,0.710547,
2011-07-25, 02:08:05,VALID,916.279,VALID,0,VALID,96.1541,VALID,0,VALID,20.0538,VALID,96,VALID,0.776563,
2011-07-25, 02:09:05,VALID,916.258,VALID,0,VALID,96.1618,VALID,0,VALID,20.0343,VALID,96,VALID,0.570703,
2011-07-25, 02:10:05,VALID,916.24,VALID,0,VALID,96.1923,VALID,0,VALID,20.0133,VALID,96,VALID,0.740625,
2011-07-25, 02:11:05,VALID,916.207,VALID,0,VALID,96.2456,VALID,0,VALID,19.9938,VALID,96,VALID,0.650391,
2011-07-25, 02:12:05,VALID,916.198,VALID,0,VALID,96.2533,VALID,0,VALID,19.9953,VALID,96,VALID,0.891016,
2011-07-25, 02:13:05,VALID,916.212,VALID,0,VALID,96.2533,VALID,0,VALID,19.9758,VALID,96,VALID,0.704297,
2011-07-25, 02:14:05,VALID,916.207,VALID,0,VALID,96.299,VALID,0,VALID,19.9758,VALID,96,VALID,0.823047,
2011-07-25, 02:15:05,VALID,916.26,VALID,0,VALID,96.3066,VALID,0,VALID,19.9563,VALID,96,VALID,0.755859,
2011-07-25, 02:16:05,VALID,916.301,VALID,0,VALID,96.3524,VALID,0,VALID,19.9563,VALID,96,VALID,0.522656,
2011-07-25, 02:17:05,VALID,916.303,VALID,0,VALID,96.4286,VALID,0,VALID,19.9563,VALID,96,VALID,0.326172,
2011-07-25, 02:18:05,VALID,916.351,VALID,0,VALID,96.4667,VALID,0,VALID,19.9548,VALID,96,VALID,0.501562,
2011-07-25, 02:19:05,VALID,916.386,VALID,0,VALID,96.4743,VALID,0,VALID,19.9548,VALID,96,VALID,0.628125,
2011-07-25, 02:20:05,VALID,916.373,VALID,0,VALID,96.4896,VALID,0,VALID,19.9743,VALID,96,VALID,0.256641,
2011-07-25, 02:21:05,VALID,916.368,VALID,0,VALID,96.5124,VALID,0,VALID,19.9743,VALID,96,VALID,0,
2011-07-25, 02:22:05,VALID,916.356,VALID,0,VALID,96.5353,VALID,0,VALID,19.9743,VALID,96,VALID,0,
2011-07-25, 02:23:05,VALID,916.303,VALID,0,VALID,96.5658,VALID,0,VALID,20.0133,VALID,96,VALID,0.251563,
2011-07-25, 02:24:05,VALID,916.262,VALID,0,VALID,96.5429,VALID,0,VALID,20.0148,VALID,96,VALID,0.648438,
2011-07-25, 02:25:05,VALID,916.21,VALID,0,VALID,96.5963,VALID,0,VALID,20.0343,VALID,96,VALID,0.734766,
2011-07-25, 02:26:05,VALID,916.15,VALID,0,VALID,96.5811,VALID,0,VALID,20.0343,VALID,96,VALID,0.697656,
2011-07-25, 02:27:05,VALID,916.115,VALID,0,VALID,96.5811,VALID,0,VALID,20.0133,VALID,96,VALID,0.763672,
2011-07-25, 02:28:05,VALID,916.08,VALID,0,VALID,96.5582,VALID,0,VALID,19.9938,VALID,66,VALID,0.956641,
2011-07-25, 02:29:05,VALID,916.049,VALID,0,VALID,96.5582,VALID,0,VALID,19.9953,VALID,35,VALID,0.916797,
2011-07-25, 02:30:05,VALID,916.048,VALID,0,VALID,96.5734,VALID,0,VALID,19.9953,VALID,35,VALID,1.26836,
2011-07-25, 02:31:05,VALID,916.015,VALID,0,VALID,96.6039,VALID,0,VALID,20.0148,VALID,35,VALID,1.18086,
2011-07-25, 02:32:05,VALID,915.993,VALID,0,VALID,96.6115,VALID,0,VALID,20.0148,VALID,35,VALID,1.12891,
2011-07-25, 02:33:05,VALID,916.004,VALID,0,VALID,96.6192,VALID,0,VALID,20.0538,VALID,35,VALID,0.784375,
2011-07-25, 02:34:05,VALID,916.015,VALID,0,VALID,96.6344,VALID,0,VALID,20.0538,VALID,35,VALID,0.567578,
2011-07-25, 02:35:05,VALID,916.044,VALID,0,VALID,96.6192,VALID,0,VALID,20.0733,VALID,35,VALID,0.0601562,
2011-07-25, 02:36:04,VALID,916.056,VALID,0,VALID,96.6039,VALID,0,VALID,20.0523,VALID,35,VALID,0.782031,
2011-07-25, 02:37:04,VALID,916.05,VALID,0,VALID,96.6344,VALID,0,VALID,20.0733,VALID,35,VALID,0.878516,
2011-07-25, 02:38:04,VALID,916.028,VALID,0,VALID,96.6497,VALID,0,VALID,20.1123,VALID,35,VALID,0.0375,
2011-07-25, 02:39:04,VALID,916.016,VALID,0,VALID,96.6268,VALID,0,VALID,20.1123,VALID,35,VALID,0.207422,
2011-07-25, 02:40:04,VALID,915.987,VALID,0,VALID,96.642,VALID,0,VALID,20.1334,VALID,35,VALID,0.0875,
2011-07-25, 02:41:04,VALID,915.957,VALID,0,VALID,96.5734,VALID,0,VALID,20.1139,VALID,35,VALID,0.373437,
2011-07-25, 02:42:04,VALID,915.903,VALID,0,VALID,96.5429,VALID,0,VALID,20.0733,VALID,35,VALID,0.879297,
2011-07-25, 02:43:04,VALID,915.844,VALID,0,VALID,96.6115,VALID,0,VALID,20.0718,VALID,35,VALID,0.874219,
2011-07-25, 02:44:04,VALID,915.799,VALID,0,VALID,96.6192,VALID,0,VALID,20.0718,VALID,35,VALID,1.00352,
2011-07-25, 02:45:04,VALID,915.756,VALID,0,VALID,96.6268,VALID,0,VALID,20.1123,VALID,35,VALID,0.695703,
2011-07-25, 02:46:04,VALID,915.756,VALID,0,VALID,96.642,VALID,0,VALID,20.0913,VALID,35,VALID,0.225781,
2011-07-25, 02:47:04,VALID,915.724,VALID,0,VALID,96.6268,VALID,0,VALID,20.1123,VALID,35,VALID,0.0546875,
2011-07-25, 02:48:04,VALID,915.735,VALID,0,VALID,96.6268,VALID,0,VALID,20.1123,VALID,35,VALID,0.0414063,
2011-07-25, 02:49:04,VALID,915.728,VALID,0,VALID,96.5734,VALID,0,VALID,20.0913,VALID,35,VALID,0,
2011-07-25, 02:50:04,VALID,915.738,VALID,0,VALID,96.5811,VALID,0,VALID,20.0718,VALID,35,VALID,0,
2011-07-25, 02:51:04,VALID,915.711,VALID,0,VALID,96.5506,VALID,0,VALID,20.0928,VALID,35,VALID,0,
2011-07-25, 02:52:04,VALID,915.703,VALID,0,VALID,96.4896,VALID,0,VALID,20.0538,VALID,35,VALID,0.250781,
2011-07-25, 02:53:04,VALID,915.683,VALID,0,VALID,96.5277,VALID,0,VALID,20.0133,VALID,35,VALID,0.201172,
2011-07-25, 02:54:04,VALID,915.657,VALID,0,VALID,96.5429,VALID,0,VALID,19.9938,VALID,35,VALID,0.009375,
2011-07-25, 02:55:04,VALID,915.687,VALID,0,VALID,96.5277,VALID,0,VALID,19.9953,VALID,35,VALID,0,
2011-07-25, 02:56:04,VALID,915.732,VALID,0,VALID,96.5353,VALID,0,VALID,19.9743,VALID,35,VALID,0,
2011-07-25, 02:57:04,VALID,915.717,VALID,0,VALID,96.5811,VALID,0,VALID,19.9938,VALID,35,VALID,0.0332031,
2011-07-25, 02:58:04,VALID,915.699,VALID,0,VALID,96.5429,VALID,0,VALID,19.9953,VALID,35,VALID,0.446094,
2011-07-25, 02:59:04,VALID,915.656,VALID,0,VALID,96.5124,VALID,0,VALID,19.9563,VALID,35,VALID,0.233594,
2011-07-25, 03:00:04,VALID,915.626,VALID,0,VALID,96.4896,VALID,0,VALID,19.9368,VALID,35,VALID,0.183203,
2011-07-25, 03:01:04,VALID,915.595,VALID,0,VALID,96.4743,VALID,0.107441,VALID,19.8753,VALID,35,VALID,0.246875,
2011-07-25, 03:02:04,VALID,915.58,VALID,0,VALID,96.4819,VALID,0.107441,VALID,19.8768,VALID,35,VALID,0,
2011-07-25, 03:03:04,VALID,915.611,VALID,0,VALID,96.4896,VALID,0.107441,VALID,19.8573,VALID,35,VALID,0,
2011-07-25, 03:04:04,VALID,915.62,VALID,0,VALID,96.36,VALID,0.107441,VALID,19.8183,VALID,35,VALID,0,
2011-07-25, 03:05:04,VALID,915.616,VALID,0,VALID,96.2533,VALID,0.107441,VALID,19.6803,VALID,35,VALID,0.00195313,
2011-07-25, 03:06:04,VALID,915.607,VALID,0,VALID,96.2761,VALID,0,VALID,19.6623,VALID,35,VALID,0.188281,
2011-07-25, 03:07:04,VALID,915.591,VALID,0,VALID,96.3219,VALID,0,VALID,19.6218,VALID,35,VALID,0.373047,
2011-07-25, 03:08:04,VALID,915.588,VALID,0,VALID,96.4591,VALID,0.107441,VALID,19.6218,VALID,35,VALID,0.482422,
2011-07-25, 03:09:04,VALID,915.631,VALID,0,VALID,96.5048,VALID,0,VALID,19.6818,VALID,35,VALID,0.610547,
2011-07-25, 03:10:04,VALID,915.682,VALID,0,VALID,96.3066,VALID,0.107441,VALID,19.6038,VALID,35,VALID,1.00703,
2011-07-25, 03:11:04,VALID,915.687,VALID,0,VALID,96.3066,VALID,0.107441,VALID,19.5453,VALID,35,VALID,0.552344,
2011-07-25, 03:12:04,VALID,915.695,VALID,0,VALID,96.3447,VALID,0,VALID,19.4868,VALID,35,VALID,0.417578,
2011-07-25, 03:13:04,VALID,915.678,VALID,0,VALID,96.421,VALID,0,VALID,19.4658,VALID,35,VALID,0.0808594,
2011-07-25, 03:14:04,VALID,915.686,VALID,0,VALID,96.4057,VALID,0.107441,VALID,19.4673,VALID,35,VALID,0.0671875,
2011-07-25, 03:15:04,VALID,915.694,VALID,0,VALID,96.3905,VALID,0.107441,VALID,19.4074,VALID,35,VALID,0.718359,
2011-07-25, 03:16:04,VALID,915.71,VALID,0,VALID,96.4591,VALID,0.107441,VALID,19.3893,VALID,35,VALID,0.599609,
2011-07-25, 03:17:04,VALID,915.747,VALID,0,VALID,96.4896,VALID,0.107441,VALID,19.3893,VALID,35,VALID,0.696094,
2011-07-25, 03:18:04,VALID,915.78,VALID,0,VALID,96.6497,VALID,0.107441,VALID,19.4283,VALID,35,VALID,0.412891,
2011-07-25, 03:19:04,VALID,915.786,VALID,0,VALID,96.6725,VALID,0.107441,VALID,19.4478,VALID,35,VALID,0.241797,
2011-07-25, 03:20:04,VALID,915.783,VALID,0,VALID,96.6649,VALID,0.107441,VALID,19.4074,VALID,35,VALID,0.471484,
2011-07-25, 03:21:04,VALID,915.773,VALID,0,VALID,96.7716,VALID,0,VALID,19.4883,VALID,35,VALID,0.826953,
2011-07-25, 03:22:04,VALID,915.8,VALID,0,VALID,96.7488,VALID,0,VALID,19.4883,VALID,35,VALID,0.620313,
2011-07-25, 03:23:04,VALID,915.815,VALID,0,VALID,96.6039,VALID,0,VALID,19.3713,VALID,125,VALID,1.09336,
2011-07-25, 03:24:04,VALID,915.827,VALID,0,VALID,96.6725,VALID,0,VALID,19.3503,VALID,153,VALID,0.816797,
2011-07-25, 03:25:04,VALID,915.792,VALID,0,VALID,96.7107,VALID,0,VALID,19.3518,VALID,153,VALID,0.319922,
2011-07-25, 03:26:04,VALID,915.751,VALID,0,VALID,96.7793,VALID,0,VALID,19.3713,VALID,153,VALID,0.714063,
2011-07-25, 03:27:04,VALID,915.723,VALID,0,VALID,96.8784,VALID,0,VALID,19.4493,VALID,152,VALID,0.755078,
2011-07-25, 03:28:04,VALID,915.692,VALID,0,VALID,96.8555,VALID,0,VALID,19.4688,VALID,128,VALID,1.29102,
2011-07-25, 03:29:04,VALID,915.677,VALID,0,VALID,96.8631,VALID,0,VALID,19.4688,VALID,150,VALID,0.698438,
2011-07-25, 03:30:04,VALID,915.649,VALID,0,VALID,96.8707,VALID,0,VALID,19.4688,VALID,138,VALID,0.965234,
2011-07-25, 03:31:04,VALID,915.674,VALID,0,VALID,96.8707,VALID,0,VALID,19.4493,VALID,128,VALID,0.456641,
2011-07-25, 03:32:04,VALID,915.67,VALID,0,VALID,96.8707,VALID,0,VALID,19.4508,VALID,130,VALID,0.559375,
2011-07-25, 03:33:04,VALID,915.639,VALID,0,VALID,96.8784,VALID,0,VALID,19.4508,VALID,137,VALID,0.9125,
2011-07-25, 03:34:04,VALID,915.629,VALID,0,VALID,96.8707,VALID,0,VALID,19.4118,VALID,137,VALID,0.465234,
2011-07-25, 03:35:04,VALID,915.609,VALID,0,VALID,96.8784,VALID,0,VALID,19.3908,VALID,137,VALID,0.833594,
2011-07-25, 03:36:04,VALID,915.613,VALID,0,VALID,96.8631,VALID,0,VALID,19.3728,VALID,137,VALID,0.775781,
2011-07-25, 03:37:04,VALID,915.654,VALID,0,VALID,96.886,VALID,0,VALID,19.3518,VALID,137,VALID,0.237891,
2011-07-25, 03:38:04,VALID,915.664,VALID,0,VALID,96.8936,VALID,0,VALID,19.3533,VALID,137,VALID,0,
2011-07-25, 03:39:04,VALID,915.695,VALID,0,VALID,96.9165,VALID,0,VALID,19.2918,VALID,137,VALID,0,
2011-07-25, 03:40:04,VALID,915.682,VALID,0,VALID,96.9165,VALID,0,VALID,19.3128,VALID,137,VALID,0,
2011-07-25, 03:41:04,VALID,915.684,VALID,0,VALID,96.886,VALID,0,VALID,19.2933,VALID,137,VALID,0.0902344,
2011-07-25, 03:42:04,VALID,915.7,VALID,0,VALID,96.9089,VALID,0,VALID,19.2738,VALID,137,VALID,0.0730469,
2011-07-25, 03:43:04,VALID,915.659,VALID,0,VALID,96.8631,VALID,0,VALID,19.2543,VALID,137,VALID,0.31875,
2011-07-25, 03:44:04,VALID,915.637,VALID,0,VALID,96.8021,VALID,0,VALID,19.1763,VALID,137,VALID,0.148438,
2011-07-25, 03:45:04,VALID,915.634,VALID,0,VALID,96.886,VALID,0,VALID,19.1583,VALID,137,VALID,0.201953,
2011-07-25, 03:46:04,VALID,915.606,VALID,0,VALID,96.9851,VALID,0,VALID,19.1973,VALID,137,VALID,0,
2011-07-25, 03:47:04,VALID,915.565,VALID,0,VALID,97.0156,VALID,0,VALID,19.1973,VALID,137,VALID,0,